Location: Warwick
(41.7000°N, 71.4170°W)
Time: 15:51:56
(UTC-04:00)

BREEZE-M DEB (TANK) - Visible Passes

Search period start: 27 May 2015 00:00
Search period end: 06 June 2015 00:00
Orbit: 321 x 15945 km, 49.5° (Epoch: 25 May)

Date Brightness Start Highest point End Pass type
(mag) Time Alt. Az. Time Alt. Az. Time Alt. Az.
27 May 5.7 22:09:40 10° WNW 22:17:51 67° SW 22:43:38 23° SE visible
28 May 5.9 22:19:50 10° WNW 22:28:28 62° SW 22:53:29 24° SSE visible
29 May 6.1 22:30:01 10° WNW 22:39:10 57° SW 23:03:23 25° SSE visible
30 May 6.3 22:40:11 10° WNW 22:49:56 52° SW 23:13:21 26° SSE visible
31 May 6.5 22:50:24 10° WNW 23:00:45 48° SW 23:23:23 26° SSE visible
01 Jun 6.7 23:00:38 10° WNW 23:11:40 44° SW 23:33:27 26° S visible
02 Jun 6.9 23:10:56 10° WNW 23:22:38 40° SW 23:43:35 25° S visible
03 Jun 7.1 23:21:16 10° WNW 23:33:42 36° SW 23:53:47 24° S visible
04 Jun 7.3 23:31:41 10° W 23:44:52 32° SW 00:04:02 23° S visible
